Truckee-Tahoe, CA

10:21 PM PST on November 22, 2017 (GMT -0800)
Truckee-Tahoe

Weather History for KTRK - March, 2013

Change the Weather History Date:

Wednesday, March 20, 2013

  Actual Average Record
Temperature  
Mean Temperature 38 °F -  
Max Temperature 44 °F 49 °F 73 °F (2004)
Min Temperature 32 °F 20 °F -4 °F (1952)
Degree Days  
Heating Degree Days 27    
Moisture  
Dew Point 32 °F    
Average Humidity 79    
Maximum Humidity 100    
Minimum Humidity 66    
Precipitation  
Precipitation 0.07 in - - ()
Sea Level Pressure  
Sea Level Pressure 30.06 in    
Wind  
Wind Speed 13 mph (SSW)    
Max Wind Speed 24 mph    
Max Gust Speed 31 mph    
Visibility 9 miles    
Events Rain , Snow    
Averages and records for this station are not official NWS values.
T = Trace of Precipitation, MM = Missing Value Source: NWS Daily Summary

Daily Weather History Graph

Daily Weather History Graph

Search for Another Location

Airport or City:

Trip Planner

Search our weather history database for the weather conditions in past years. The results will help you decide how hot, cold, wet, or windy it might be!

Date:

Astronomy

Mar. 20, 2013 Rise Set
Actual Time 7:03 AM PDT 7:12 PM PDT
Civil Twilight 6:36 AM PDT 7:39 PM PDT
Nautical Twilight 6:05 AM PDT 8:11 PM PDT
Astronomical Twilight 5:33 AM PDT 8:42 PM PDT
Moon 12:54 PM PDT (3/20) 2:45 AM PDT (3/20)
Length of Visible Light 13h 02m
Length of Day
12h 09m
First Quarter, 60% of the Moon is Illuminated
Mar 20
First Quarter
Mar 27
Full
Apr 2
Last Quarter
Apr 10
New
Apr 18
First Quarter

Hourly Weather History & Observations

Time (PDT) Temp. Windchill Dew Point Humidity Pressure Visibility Wind Dir Wind Speed Gust Speed Precip Events Conditions
12:15 AM 37.4 °F 28.5 °F 32.0 °F 81% 30.10 in 7.0 mi SSW 15.0 mph 20.7 mph N/A Rain Light Rain
12:35 AM 37.4 °F 27.5 °F 32.0 °F 81% 30.09 in 7.0 mi SSW 18.4 mph 24.2 mph 0.01 in Rain Light Rain
12:55 AM 37.4 °F 28.5 °F 32.0 °F 81% 30.09 in 7.0 mi South 15.0 mph 24.2 mph 0.02 in Rain Light Rain
1:15 AM 37.4 °F 29.3 °F 32.0 °F 81% 30.08 in 9.0 mi South 12.7 mph 21.9 mph N/A   Overcast
1:35 AM 37.4 °F 27.8 °F 32.0 °F 81% 30.08 in 10.0 mi South 17.3 mph 21.9 mph N/A   Partly Cloudy
1:55 AM 37.4 °F 27.8 °F 32.0 °F 81% 30.07 in 10.0 mi SSW 17.3 mph 25.3 mph N/A   Clear
2:15 AM 37.4 °F 29.3 °F 32.0 °F 81% 30.07 in 10.0 mi SSW 12.7 mph 26.5 mph N/A   Scattered Clouds
2:35 AM 37.4 °F 29.3 °F 32.0 °F 81% 30.07 in 9.0 mi SSW 12.7 mph 24.2 mph N/A   Mostly Cloudy
2:55 AM 37.4 °F 29.3 °F 32.0 °F 81% 30.07 in 10.0 mi South 12.7 mph 18.4 mph N/A   Scattered Clouds
3:15 AM 37.4 °F 29.3 °F 32.0 °F 81% 30.06 in 10.0 mi SSW 12.7 mph - N/A   Scattered Clouds
3:35 AM 37.4 °F 30.3 °F 32.0 °F 81% 30.07 in 10.0 mi SSW 10.4 mph - N/A   Clear
3:55 AM 37.4 °F 29.8 °F 32.0 °F 81% 30.08 in 10.0 mi SSW 11.5 mph 16.1 mph N/A   Scattered Clouds
4:15 AM 37.4 °F 29.3 °F 32.0 °F 81% 30.06 in 6.0 mi South 12.7 mph - N/A Rain Light Rain
4:35 AM 35.6 °F 26.6 °F 32.0 °F 87% 30.07 in 7.0 mi SSW 13.8 mph 18.4 mph N/A Rain Light Rain
4:55 AM 35.6 °F 26.6 °F 32.0 °F 87% 30.07 in 6.0 mi SSW 13.8 mph 17.3 mph N/A Rain Light Rain
5:15 AM 35.6 °F 28.0 °F 32.0 °F 87% 30.07 in 5.0 mi SSW 10.4 mph - 0.02 in Rain Light Rain
5:35 AM 35.6 °F 27.1 °F 32.0 °F 87% 30.06 in 5.0 mi SSW 12.7 mph - 0.03 in Rain Light Rain
5:55 AM 35.6 °F 25.9 °F 32.0 °F 87% 30.06 in 6.0 mi SW 16.1 mph 20.7 mph 0.04 in Rain Light Rain
6:15 AM 35.6 °F 25.9 °F 32.0 °F 87% 30.06 in 7.0 mi SW 16.1 mph 24.2 mph 0.01 in Rain Light Rain
6:35 AM 35.6 °F 25.2 °F 32.0 °F 87% 30.07 in 8.0 mi SSW 18.4 mph 25.3 mph 0.01 in Rain Light Rain
7:55 AM 32.0 °F 25.6 °F 32.0 °F 100% 30.08 in 2.0 mi SE 6.9 mph - N/A Snow Light Snow
10:55 AM 41.0 °F 30.9 °F 35.6 °F 81% 30.07 in 9.0 mi SSW 24.2 mph 31.1 mph N/A   Mostly Cloudy
12:55 PM 41.0 °F 31.9 °F 35.6 °F 81% 30.07 in 9.0 mi WSW 19.6 mph 26.5 mph N/A   Mostly Cloudy
2:55 PM 39.2 °F 30.5 °F 35.6 °F 87% 30.08 in 9.0 mi SW 16.1 mph 21.9 mph N/A   Mostly Cloudy
3:55 PM 44.6 °F 37.4 °F 35.6 °F 71% 30.07 in 10.0 mi SSW 16.1 mph 21.9 mph N/A   Mostly Cloudy
4:50 PM 44.6 °F 38.4 °F 33.8 °F 66% 30.05 in 10.0 mi SSW 12.7 mph 20.7 mph N/A   Mostly Cloudy
5:50 PM 41.0 °F 33.9 °F 32.0 °F 70% 30.05 in 10.0 mi SW 12.7 mph 27.6 mph N/A   Mostly Cloudy
5:55 PM 41.0 °F 35.2 °F 32.0 °F 70% 30.05 in 10.0 mi WSW 9.2 mph 27.6 mph N/A   Partly Cloudy
6:15 PM 41.0 °F 36.4 °F 32.0 °F 70% 30.05 in 10.0 mi SW 6.9 mph - N/A   Partly Cloudy
6:35 PM 41.0 °F 33.5 °F 32.0 °F 70% 30.05 in 10.0 mi SSW 13.8 mph 19.6 mph N/A   Scattered Clouds
6:55 PM 41.0 °F 34.3 °F 32.0 °F 70% 30.04 in 10.0 mi SSW 11.5 mph 16.1 mph N/A   Mostly Cloudy
7:15 PM 41.0 °F 34.7 °F 32.0 °F 70% 30.05 in 10.0 mi South 10.4 mph - N/A   Overcast
7:35 PM 41.0 °F 36.4 °F 32.0 °F 70% 30.05 in 10.0 mi SE 6.9 mph - N/A   Overcast
7:55 PM 39.2 °F 34.2 °F 32.0 °F 75% 30.05 in 10.0 mi SSW 6.9 mph - N/A   Overcast
8:15 PM 39.2 °F 33.6 °F 32.0 °F 75% 30.05 in 10.0 mi SW 8.1 mph 19.6 mph N/A   Overcast
8:35 PM 39.2 °F 33.0 °F 32.0 °F 75% 30.05 in 10.0 mi SSE 9.2 mph - N/A   Overcast
8:55 PM 39.2 °F 33.6 °F 32.0 °F 75% 30.05 in 10.0 mi South 8.1 mph - N/A Rain Light Rain
9:15 PM 39.2 °F 32.0 °F 32.0 °F 75% 30.05 in 10.0 mi South 11.5 mph 17.3 mph N/A   Overcast
9:35 PM 39.2 °F 34.2 °F 32.0 °F 75% 30.06 in 10.0 mi SSW 6.9 mph - N/A   Overcast
9:55 PM 39.2 °F 35.0 °F 32.0 °F 75% 30.07 in 10.0 mi SW 5.8 mph - N/A   Overcast
10:15 PM 37.4 °F 32.8 °F 32.0 °F 81% 30.07 in 10.0 mi SSW 5.8 mph - N/A   Overcast
10:35 PM 39.2 °F 34.2 °F 30.2 °F 70% 30.07 in 10.0 mi WSW 6.9 mph - N/A   Mostly Cloudy
10:55 PM 39.2 °F 31.6 °F 32.0 °F 75% 30.07 in 10.0 mi South 12.7 mph 23.0 mph N/A   Overcast
11:15 PM 37.4 °F 34.9 °F 32.0 °F 81% 30.06 in 9.0 mi SSE 3.5 mph - N/A Rain Light Rain
11:35 PM 37.4 °F 30.8 °F 32.0 °F 81% 30.06 in 7.0 mi SSW 9.2 mph - N/A Rain Light Rain
11:55 PM 37.4 °F 33.8 °F 28.4 °F 70% 30.05 in 10.0 mi SSW 4.6 mph 16.1 mph N/A   Scattered Clouds